Reflectivity
-20 -20 -20 -20 -20 -20 -20 -20 -20 -20 -19 -20 -20 -20 -20 -20 -20 -20 -20 -20 -15 13 10 -3 13 12 14 13 7 -17 -16 -4 -14 12 24 8 24 25
-20 -20 -20 -9 -20 -20 -20 -20 -9 -16 7 -20 -20 -20 -20 -20 -20 -20 -20 -20 -16 10 8 9 12 16 4 9 3 7 12 5 10 21 21 25 27 31
-20 -20 -20 -20 -20 -20 -20 -20 -20 -20 -20 -20 -20 -20 -20 -20 -20 -20 -20 -20 -20 -20 8 11 10 -12 -19 4 -5 -3 5 7 7 12 29 32 28 11
-20 -20 -20 -20 -20 -20 -20 -20 -13 -20 -18 -20 -20 -19 -20 -20 -20 -20 -20 -20 -20 -20 -20 -20 -20 -17 -19 -20 -20 -20 -8 -17 16 8 6 10 9 19
-20 -20 -20 -20 -20 -20 -20 -20 -20 -20 -20 -20 -20 -20 -20 -20 -20 -20 -20 -20 -20 -20 -20 -20 -20 -20 -20 -20 -20 -20 -20 -20 -20 7 2 14 14 20
-20 -20 -20 -20 -20 -20 -20 -20 -20 -20 -20 -20 -20 -20 -20 -20 -20 -20 -20 -20 -20 -20 -20 -20 -20 -20 -20 -20 -20 -20 -20 -20 -20 -20 -20 -7 2 7
-20 -20 -20 -20 -15 -11 -20 -20 -20 -20 -20 -20 -20 -20 -20 -20 -20 -20 -20 -20 -20 -20 -20 -20 -20 -20 -20 -20 -20 -20 -20 -20 -20 -20 -20 -18 -16 -8
-20 -20 -20 -20 -20 -20 -20 -20 -20 -20 -20 -20 -20 -20 -20 -20 -20 -20 -20 -20 -20 -20 -20 -20 -20 -20 -20 -20 -20 -20 -20 -20 -20 -20 -20 -20 -20 -20
-20 -20 -20 -20 -20 -19 -20 -20 -20 -20 -20 -20 -20 -20 -20 -20 -20 -20 -20 -20 -20 -20 -20 -20 -20 -20 -20 -20 -20 -20 -20 -20 -20 -20 -20 -20 -20 -20
-20 -20 -20 -11 -14 -20 -20 -20 -20 -20 -20 -20 -20 -20 -20 -20 -20 -20 -20 -20 -20 -20 -20 -20 -20 -20 -20 -20 -20 -20 -20 -20 -20 -20 -20 -20 -20 -20
-20 -19 -20 -20 -20 -12 -16 -20 -20 -20 -20 -20 -20 -20 -20 -20 -20 -20 -20 -20 -20 -20 -20 -20 -20 -20 -20 -20 -20 -20 -20 -20 -20 -20 -20 -20 -20 -20
-20 -20 -20 -20 -20 -20 -19 -20 -20 -20 -20 -20 -20 -20 -20 -20 -20 -20 -20 -20 -20 -20 -20 -20 -20 -20 -20 -20 -20 -20 -20 -20 -20 -20 -20 -20 -20 -20
-20 -18 -17 -20 -20 -20 -20 -20 -20 -20 -20 -20 -20 -20 -20 -20 -20 -20 -20 -20 -20 -20 -20 -20 -20 -20 -20 -20 -20 -20 -20 -20 -20 -20 -20 -20 -20 -20
-20 -20 -20 -20 -20 -20 -20 -20 -20 -20 -20 -20 -20 -20 -20 -20 -20 -20 -20 -20 -20 -20 -20 -20 -20 -20 -20 -20 -20 -20 -20 -20 -20 -20 -20 -20 -20 -20
-20 -20 -20 -20 -20 -20 -20 -20 -20 -20 -20 -20 -20 -20 -20 -20 -20 -20 -20 -20 -20 -20 -20 -20 -20 -20 -20 -20 -20 -20 -20 -20 -20 -20 -20 -20 -20 -20
-20 -20 -20 -20 -20 -20 -20 -20 -20 -20 -20 -20 -20 -11 -12 -20 -20 -20 -20 -20 -20 -20 -20 -20 -20 -20 -20 -20 -20 -20 -20 -20 -20 -20 -20 -20 -20 -20
-20 -20 -20 -20 -20 -20 -20 -20 -20 -20 -20 -20 -20 -18 -16 -20 -20 -20 -20 -20 -20 -20 -20 -20 -20 -20 -20 -20 -20 -20 -20 -20 -20 -20 -20 -20 -20 -20
-20 -20 -20 -20 -17 -12 -7 3 4 -8 -5 1 3 -14 -20 -20 -20 -20 -20 -20 -20 -20 -20 -20 -20 -20 -20 -20 -20 -20 -20 -20 -20 -20 -20 -20 -20 -20
-20 -12 -12 -20 -20 -20 -16 -19 -20 -17 -20 -20 -20 -20 -20 -20 -20 -20 -20 -20 -20 -20 -20 -20 -20 -20 -20 -20 -20 -20 -20 -20 -20 -20 -20 -20 -20 -20
-20 -20 -20 -20 -20 -20 -20 -20 -20 -20 -20 -20 -20 -20 -20 -20 -20 -20 -20 -20 -20 -20 -20 -20 -20 -20 -20 -20 -20 -20 -20 -20 -20 -20 -20 -20 -20 -20
-8 -1 -20 -20 -20 -20 -20 -20 -17 -3 3 -19 -20 -20 -20 -20 -20 -20 -20 -20 -20 -20 -20 -20 -20 -20 -20 -16 -19 -20 -20 -20 -20 -20 -20 -20 -20 -20
5 9 8 2 -4 -20 -20 -20 -19 -3 -3 -16 -13 -20 -19 -20 -20 -20 -20 -20 -20 -20 -20 -20 -20 -20 -20 -20 -20 -20 -20 -20 -20 -20 -20 -20 -20 -20
-17 -14 -1 2 4 -3 -16 -18 -18 -20 -6 2 -20 -6 -17 -20 -20 -20 -20 -20 -20 -20 -20 -20 -20 -20 -20 -20 -15 -20 -20 -20 -20 -20 -20 -20 -20 -20
Wind_Speed
3 2 2 2 1 1 1 0 2 3 3 2 2 3 2 3 5 3 3 8 11 13 12 12 11 12 15 18 17 19 21 3 9 21 21 18 17 19
1 1 1 1 1 1 1 1 1 1 2 1 2 2 3 2 4 3 4 6 10 10 11 12 11 12 13 16 18 20 20 22 10 9 18 17 15 10
4 2 1 0 2 3 2 2 2 1 2 1 2 1 3 3 3 3 2 3 3 7 9 8 10 11 12 13 15 17 18 21 19 20 17 16 18 15
3 4 2 3 4 3 3 3 2 2 2 3 2 1 2 1 1 1 2 3 2 5 7 8 9 11 13 14 13 15 15 16 15 16 16 14 10 6
5 5 3 4 3 3 2 2 1 1 1 2 2 1 1 2 2 3 3 3 2 7 6 8 9 9 10 11 12 14 15 14 10 10 9 8 8 7
5 5 4 5 4 3 4 3 2 3 2 3 3 2 2 2 3 2 3 4 3 4 6 7 8 9 9 10 11 12 12 11 11 10 8 7 6 5
5 5 4 6 8 6 2 3 3 2 2 2 2 2 2 3 2 2 2 1 2 4 3 3 3 4 4 6 6 8 8 7 7 6 5 4 2 2
5 4 3 5 6 9 9 8 5 2 2 2 2 2 2 2 1 1 1 2 1 2 4 3 3 3 3 3 6 9 7 5 4 4 4 4 4 4
4 4 2 3 4 5 6 7 7 9 7 4 4 2 2 2 2 2 1 1 1 3 2 2 3 2 3 4 5 8 6 6 6 4 4 3 4 5
4 4 4 4 4 4 4 4 3 3 4 4 5 4 4 4 3 3 3 1 1 1 2 1 3 2 3 3 5 7 7 7 8 6 4 4 4 4
4 4 4 4 4 5 3 3 2 1 4 7 6 4 4 3 4 3 1 3 1 1 3 1 3 2 3 3 4 10 8 7 5 5 5 5 7 5
3 2 8 5 5 4 4 3 3 2 2 2 2 1 3 3 6 2 3 3 2 2 2 2 3 2 4 2 2 3 4 9 9 8 8 8 6 1
4 3 3 6 4 4 6 3 3 3 3 2 1 1 2 3 3 3 3 4 3 1 0 3 1 3 1 3 3 2 2 3 3 5 8 8 8 6
4 3 4 8 6 5 3 4 3 3 1 1 1 1 2 2 2 3 3 2 2 4 2 2 1 2 1 2 3 3 3 3 1 2 2 7 9 9
3 6 9 8 6 3 5 5 4 2 2 1 2 1 2 3 3 1 1 2 2 3 3 3 3 2 2 3 4 4 5 4 5 1 2 2 2 2
7 5 6 6 6 5 4 4 3 3 3 2 2 1 2 2 1 2 1 0 2 3 4 3 5 4 3 4 5 7 3 5 2 2 5 3 3 4
5 2 2 3 3 3 3 4 3 3 2 2 2 2 2 2 2 2 2 1 2 2 3 3 3 5 5 5 3 6 6 4 4 5 2 5 4 5
5 4 4 5 5 5 4 4 3 5 4 3 3 3 3 3 2 1 1 3 3 2 2 2 2 2 3 5 16 7 4 4 3 4 3 5 7 4
6 5 5 5 5 6 5 4 4 4 4 4 4 4 3 3 4 2 2 2 2 2 3 2 2 3 3 7 3 11 5 3 2 2 3 4 8 8
4 5 6 6 5 5 4 4 4 3 3 4 4 4 4 3 3 3 3 3 3 2 2 1 2 4 4 5 4 4 6 3 3 6 5 4 8 18
7 6 6 6 6 6 5 5 5 5 4 4 4 5 4 4 4 4 4 10 8 3 5 3 5 13 6 3 3 7 4 13 12 5 3 4 7 5
7 7 7 7 7 6 6 6 5 5 4 5 5 5 5 5 5 5 5 5 5 5 5 4 4 5 4 6 9 10 8 5 10 17 19 17 6 6
8 8 8 9 8 7 6 6 6 5 5 5 5 5 5 5 6 5 5 5 4 4 5 6 2 2 6 6 11 9 11 9 6 7 9 17 21 24
Wind_Direction
147 144 229 243 306 6 346 300 203 213 188 74 140 50 54 57 85 67 39 17 26 29 28 25 19 20 14 13 14 15 14 320 307 200 198 201 201 189
146 98 201 224 137 58 49 37 66 134 144 120 77 85 29 93 65 66 55 39 29 16 19 16 20 27 26 17 19 24 26 38 29 229 212 193 182 151
104 125 92 144 114 81 71 68 67 76 162 93 97 41 56 44 28 32 72 83 40 17 15 18 26 32 38 27 24 26 28 37 45 55 80 110 115 118
104 106 82 79 61 65 75 63 58 61 137 131 139 140 102 9 330 101 14 74 61 30 34 21 25 38 44 42 29 26 30 36 44 49 56 64 73 88
67 85 86 98 76 57 74 99 102 101 99 108 129 111 117 83 14 6 52 29 11 29 30 26 34 39 40 45 41 33 31 29 37 50 58 65 64 55
87 78 66 70 77 91 75 54 52 81 67 115 101 144 93 38 75 49 21 29 358 1 9 25 30 25 34 55 48 32 26 25 32 44 52 46 44 50
83 83 81 88 85 93 108 63 73 65 71 85 90 80 89 46 63 359 52 344 350 12 335 348 2 15 28 34 35 20 14 10 13 17 26 33 46 31
130 116 101 85 85 93 83 76 98 142 112 119 131 117 103 109 35 48 56 30 336 357 3 346 24 25 5 345 23 10 3 11 4 354 347 335 323 303
133 139 113 80 70 58 78 70 71 76 86 132 112 126 129 135 133 84 66 115 247 299 19 316 5 2 343 345 16 11 17 10 9 2 344 322 293 280
142 172 151 125 138 114 106 94 93 74 79 85 106 132 133 135 132 162 181 241 344 338 9 357 352 317 327 326 14 35 29 25 20 18 348 329 305 278
136 120 137 153 149 129 118 111 153 105 97 111 130 123 115 109 132 98 49 73 339 331 359 47 345 313 326 332 359 23 6 4 19 11 356 346 345 341
160 135 147 170 160 161 135 149 140 193 136 83 48 41 72 74 88 106 146 132 170 12 298 74 346 31 342 307 323 11 351 13 6 5 353 357 327 341
175 182 207 188 177 186 152 151 182 173 186 143 128 126 96 109 112 97 94 131 139 211 105 94 9 349 72 303 311 337 26 342 336 328 335 330 312 306
190 187 199 190 186 184 155 211 184 131 148 171 150 154 150 152 168 153 140 137 137 170 282 117 232 138 341 298 267 327 323 301 144 288 294 306 305 305
175 188 192 192 198 211 218 210 197 163 194 187 199 207 186 174 140 88 357 260 241 229 223 231 197 227 202 253 283 301 319 313 303 286 310 303 272 267
197 197 192 199 199 202 226 219 192 199 196 193 212 197 128 136 186 156 161 224 97 293 285 238 222 180 226 240 253 271 233 286 283 311 292 279 264 249
169 158 188 194 208 221 221 223 216 214 198 176 190 200 198 172 223 166 184 122 170 227 287 301 289 206 206 187 255 246 257 246 251 275 299 291 253 241
187 190 201 204 210 212 210 213 206 220 202 196 200 201 198 189 211 258 131 175 203 235 246 267 329 1 329 265 226 254 239 242 240 245 240 270 281 262
211 208 217 210 214 212 211 202 207 208 186 192 193 201 192 194 243 194 216 200 244 227 243 214 159 140 254 273 273 224 226 223 244 251 221 238 274 280
188 199 212 211 212 213 207 211 211 193 199 201 197 194 197 195 198 220 207 208 228 241 256 250 190 188 205 238 239 246 202 202 197 271 278 255 261 273
214 219 211 207 211 211 212 203 203 207 195 191 204 200 205 188 225 224 224 253 250 203 248 221 221 245 230 250 269 271 259 244 250 221 228 258 281 268
218 224 223 219 215 212 211 209 203 213 212 202 214 209 204 196 222 221 218 231 234 238 252 258 240 233 229 244 266 278 283 261 249 260 261 254 256 278
220 215 215 214 212 212 206 204 205 206 203 213 212 216 203 213 217 222 222 222 223 224 238 258 233 207 238 235 257 271 277 281 279 277 265 258 261 262